Weather History for KINW - May, 2013

Change the Weather History Date:

Tuesday, May 21, 2013

  Actual Average Record
Temperature  
Mean Temperature 64 °F 65 °F  
Max Temperature 87 °F 83 °F 96 °F (2005)
Min Temperature 41 °F 47 °F 33 °F (1974)
Degree Days  
Heating Degree Days 1 2  
Month to date heating degree days 75 90  
Since 1 July heating degree days 4184 4469  
Cooling Degree Days 0 2  
Month to date cooling degree days 19 30  
Year to date cooling degree days 26 34  
Growing Degree Days 14 (Base 50)    
Moisture  
Dew Point 18 °F    
Average Humidity 20    
Maximum Humidity 33    
Minimum Humidity 7    
Precipitation  
Precipitation 0.00 in 0.01 in 0.62 in (1959)
Month to date precipitation T 0.23  
Year to date precipitation 1.79 2.01  
Sea Level Pressure  
Sea Level Pressure 29.86 in    
Wind  
Wind Speed 9 mph (SSW)    
Max Wind Speed 23 mph    
Max Gust Speed 32 mph    
Visibility 10 miles    
Events      
T = Trace of Precipitation, MM = Missing Value Source: NWS Daily Summary

Daily Weather History Graph

Daily Weather History Graph

Search for Another Location

Airport or City:

Trip Planner

Search our weather history database for the weather conditions in past years. The results will help you decide how hot, cold, wet, or windy it might be!

Date:

Astronomy

May. 21, 2013 Rise Set
Actual Time 5:14 AM MST 7:24 PM MST
Civil Twilight 4:46 AM MST 7:53 PM MST
Nautical Twilight 4:11 AM MST 8:27 PM MST
Astronomical Twilight 3:33 AM MST 9:05 PM MST
Moon 3:49 PM MST (5/21) 2:36 AM MST (5/21)
Length of Visible Light 15h 06m
Length of Day
14h 09m
Waxing Gibbous, 85% of the Moon is Illuminated
May 21
Waxing Gibbous
May 24
Full
May 31
Last Quarter
Jun 8
New
Jun 16
First Quarter

Hourly Weather History & Observations

Time (MST) Temp. Windchill Dew Point Humidity Pressure Visibility Wind Dir Wind Speed Gust Speed Precip Events Conditions
12:56 AM 50.0 °F - 16.0 °F 26% 29.93 in 10.0 mi SW 8.1 mph - N/A   Clear
1:56 AM 48.9 °F - 16.0 °F 27% 29.92 in 10.0 mi Calm Calm - N/A   Clear
2:56 AM 45.0 °F 43.5 °F 15.1 °F 30% 29.95 in 10.0 mi SW 3.5 mph - N/A   Clear
3:56 AM 42.1 °F 38.4 °F 14.0 °F 32% 29.96 in 10.0 mi SW 5.8 mph - N/A   Clear
4:56 AM 43.0 °F - 15.1 °F 32% 29.97 in 10.0 mi Calm Calm - N/A   Clear
5:56 AM 42.1 °F 38.4 °F 16.0 °F 35% 29.99 in 10.0 mi ESE 5.8 mph - N/A   Clear
6:56 AM 48.9 °F - 18.0 °F 29% 29.97 in 10.0 mi East 5.8 mph - N/A   Clear
7:56 AM 57.0 °F - 19.9 °F 24% 29.97 in 10.0 mi Calm Calm - N/A   Clear
8:56 AM 64.0 °F - 25.0 °F 23% 29.97 in 10.0 mi Calm Calm - N/A   Clear
9:56 AM 70.0 °F - 21.9 °F 16% 29.94 in 10.0 mi ESE 6.9 mph - N/A   Clear
10:56 AM 75.0 °F - 21.0 °F 13% 29.92 in 10.0 mi Calm Calm - N/A   Clear
11:56 AM 75.9 °F - 19.0 °F 12% 29.89 in 10.0 mi Variable 5.8 mph - N/A   Clear
12:56 PM 81.0 °F - 18.0 °F 10% 29.83 in 10.0 mi SE 11.5 mph - N/A   Clear
1:56 PM 82.9 °F - 18.0 °F 9% 29.81 in 10.0 mi Variable 6.9 mph 19.6 mph N/A   Clear
2:56 PM 84.9 °F - 14.0 °F 7% 29.78 in 10.0 mi WSW 11.5 mph - N/A   Clear
3:56 PM 82.9 °F - 18.0 °F 9% 29.78 in 10.0 mi SW 13.8 mph 23.0 mph N/A   Clear
4:56 PM 84.9 °F - 17.1 °F 8% 29.75 in 10.0 mi West 13.8 mph 21.9 mph N/A   Clear
5:56 PM 82.9 °F - 19.0 °F 9% 29.75 in 10.0 mi WSW 17.3 mph 32.2 mph N/A   Clear
6:56 PM 78.1 °F - 19.9 °F 11% 29.75 in 10.0 mi WSW 16.1 mph 23.0 mph N/A   Clear
7:56 PM 75.0 °F - 19.0 °F 12% 29.74 in 10.0 mi SW 12.7 mph - N/A   Clear
8:56 PM 70.0 °F - 18.0 °F 14% 29.76 in 10.0 mi SSW 15.0 mph - N/A   Clear
9:56 PM 68.0 °F - 19.0 °F 15% 29.76 in 10.0 mi SW 15.0 mph - N/A   Clear
10:56 PM 64.9 °F - 18.0 °F 16% 29.74 in 10.0 mi SSW 16.1 mph - N/A   Clear
11:56 PM 64.9 °F - 17.1 °F 16% 29.75 in 10.0 mi SW 13.8 mph - N/A   Clear